Regional Weather Roundup
Issued by NWS

Home | Current Version | Previous Version | Text Only | Print | Product List | Glossary On
Versions: 1 2 3 4 5 6 7 8 9 10 11 12 13 14 15 16 17 18 19 20 21 22 23 24 25 26 27 28 29 30 31 32 33 34 35 36 37 38 39 40 41 42
000
ASUS44 KBMX 261010
RWRAL

ALABAMA REGIONAL WEATHER ROUNDUP
NATIONAL WEATHER SERVICE BIRMINGHAM AL
400 AM CST FRI DEC 26 2014

NOTE: "FAIR" INDICATES FEW OR NO CLOUDS BELOW 12,000 FEET
WITH NO SIGNIFICANT WEATHER AND/OR OBSTRUCTIONS TO VISIBILITY.

THE REMARK "TC" DENOTES TEMPERATURE IN DEGREES CELSIUS.

ALZ001>011-014-016>018-020-261100-
NORTH ALABAMA

CITY           SKY/WX    TMP DP  RH WIND       PRES   REMARKS
MUSCLE SHOALS  PTCLDY    34  30  85 CALM      30.27R
HUNTSVILLE     PTCLDY    37  32  82 E3        30.25S
DECATUR        PTCLDY    32  30  92 CALM      30.26S
HALEYVILLE     FAIR      29  29 100 CALM      30.27R
GADSDEN        MOCLDY    28  25  86 CALM      30.26R
$$

ALZ012-013-022-023-030>036-040>044-261100-
WEST CENTRAL ALABAMA

CITY           SKY/WX    TMP DP  RH WIND       PRES   REMARKS
TUSCALOOSA     PTCLDY    35  33  92 CALM      30.26R
$$

ALZ015-024>027-033>036-040>044-261100-
CENTRAL ALABAMA

CITY           SKY/WX    TMP DP  RH WIND       PRES   REMARKS
BIRMINGHAM     MOCLDY    37  34  89 CALM      30.26R
MONTGOMERY     PTCLDY    35  32  88 CALM      30.26R
SHELBY CO ARPT PTCLDY    38  35  89 CALM      30.23F
MAXWELL AFB    PTCLDY    35  35  98 NW1       30.25R
GREENVILLE     FAIR      37  33  85 SE5       30.21F WCI  33
$$

ALZ019-021-028-029-037-038-045>048-261100-
EAST CENTRAL ALABAMA

CITY           SKY/WX    TMP DP  RH WIND       PRES   REMARKS
ANNISTON       MOCLDY    35  32  88 NE3       30.26R
ALEXANDER CITY PTCLDY    34  31  87 CALM      30.25R
AUBURN         PTCLDY    36  30  80 E5        30.26S WCI  32
$$

ALZ051>064-261100-
SOUTHWEST ALABAMA

CITY           SKY/WX    TMP DP  RH WIND       PRES   REMARKS
MOBILE         PTCLDY    41  39  93 CALM      30.20F
BROOKLEY FIELD CLEAR     50  44  80 E8        30.21F
EVERGREEN      PTCLDY    34  32  92 CALM      30.23S
$$

ALZ049-050-065>069-261100-
SOUTHEAST ALABAMA

CITY           SKY/WX    TMP DP  RH WIND       PRES   REMARKS
DOTHAN         FAIR      40  37  89 E3        30.27F
OZARK          PTCLDY    36  33  90 NE3       30.24S
TROY           PTCLDY    31  29  92 CALM      30.25R
EUFAULA        CLOUDY    35  34  96 CALM      30.24F
$$


USA.gov is the U.S. government's official web portal to all federal, state and local government web resources and services.